Weather History for Pendleton, OR

Change the Weather History Date:

Tuesday, September 11, 2012

  Actual Average Record
Temperature  
Mean Temperature 54 °F 65 °F  
Max Temperature 70 °F 79 °F 100 °F (1899)
Min Temperature 38 °F 51 °F 32 °F (1904)
Degree Days  
Heating Degree Days 11 3  
Month to date heating degree days 18 19  
Since 1 July heating degree days 35 41  
Cooling Degree Days 0 3  
Month to date cooling degree days 22 37  
Year to date cooling degree days 576 607  
Growing Degree Days 4 (Base 50)    
Moisture  
Dew Point 32 °F    
Average Humidity 50    
Maximum Humidity 79    
Minimum Humidity 20    
Precipitation  
Precipitation 0.00 in 0.02 in 0.74 in (1927)
Month to date precipitation 0.00 0.18  
Year to date precipitation 10.00 8.27  
Snow  
Snow 0.00 in 0.00 in 0.00 in (2002)
Month to date snowfall 0.0 0.0  
Year to date snowfall 5.9 7.7  
Since 1 July snowfall 0.0 0.0  
Snow Depth 0.00 in    
Sea Level Pressure  
Sea Level Pressure 30.20 in    
Wind  
Wind Speed 6 mph (ESE)    
Max Wind Speed 14 mph    
Max Gust Speed 16 mph    
Visibility 10 miles    
Events      
T = Trace of Precipitation, MM = Missing Value Source: NWS Daily Summary

Daily Weather History Graph

Daily Weather History Graph

Search for Another Location

Airport:

Trip Planner

Search our weather history database for the weather conditions in past years. The results will help you decide how hot, cold, wet, or windy it might be!

Date:

Astronomy

Sep. 11, 2012 Rise Set
Actual Time 6:29 AM PDT 7:13 PM PDT
Civil Twilight 5:59 AM PDT 7:43 PM PDT
Nautical Twilight 5:23 AM PDT 8:18 PM PDT
Astronomical Twilight 4:46 AM PDT 8:55 PM PDT
Moon 1:40 AM PDT (9/11) 4:36 PM PDT (9/11)
Length of Visible Light 13h 43m
Length of Day
12h 43m
Waning Crescent, 20% of the Moon is Illuminated
Sep 11
Waning Crescent
Sep 15
New
Sep 22
First Quarter
Sep 29
Full
Oct 8
Last Quarter

Hourly Weather History & Observations

Time (PDT) Temp. Windchill Dew Point Humidity Pressure Visibility Wind Dir Wind Speed Gust Speed Precip Events Conditions
12:53 AM 51.1 °F - 37.0 °F 59% 30.13 in 10.0 mi Calm Calm - N/A   Clear
1:53 AM 42.1 °F 38.4 °F 33.1 °F 70% 30.14 in 10.0 mi ESE 5.8 mph - N/A   Clear
2:53 AM 46.9 °F - 36.0 °F 66% 30.14 in 10.0 mi SE 3.5 mph - N/A   Clear
3:53 AM 42.1 °F 37.7 °F 34.0 °F 73% 30.15 in 10.0 mi SSE 6.9 mph - N/A   Clear
4:53 AM 39.9 °F 34.5 °F 34.0 °F 79% 30.18 in 10.0 mi SE 8.1 mph - N/A   Clear
5:53 AM 39.9 °F 34.5 °F 34.0 °F 79% 30.19 in 10.0 mi SSE 8.1 mph - N/A   Clear
6:53 AM 39.9 °F 34.5 °F 34.0 °F 79% 30.21 in 10.0 mi ESE 8.1 mph - N/A   Clear
7:53 AM 46.0 °F 42.5 °F 36.0 °F 68% 30.23 in 10.0 mi SSE 6.9 mph - N/A   Clear
8:53 AM 50.0 °F - 36.0 °F 59% 30.24 in 10.0 mi South 4.6 mph - N/A   Clear
9:53 AM 55.9 °F - 37.0 °F 49% 30.25 in 10.0 mi Variable 3.5 mph - N/A   Clear
10:53 AM 57.9 °F - 37.0 °F 46% 30.25 in 10.0 mi Calm Calm - N/A   Clear
11:53 AM 62.1 °F - 35.1 °F 37% 30.23 in 10.0 mi Variable 3.5 mph - N/A   Clear
12:53 PM 64.0 °F - 33.1 °F 31% 30.22 in 10.0 mi NNE 6.9 mph - N/A   Clear
1:53 PM 66.9 °F - 30.9 °F 26% 30.20 in 10.0 mi Calm Calm - N/A   Clear
2:53 PM 68.0 °F - 30.0 °F 24% 30.18 in 10.0 mi West 4.6 mph - N/A   Clear
3:53 PM 68.0 °F - 33.8 °F 28% 30.19 in 10.0 mi West 8.1 mph - N/A   Clear
4:53 PM 68.0 °F - 26.1 °F 21% 30.17 in 10.0 mi NW 6.9 mph - N/A   Clear
5:53 PM 66.9 °F - 25.0 °F 21% 30.17 in 10.0 mi NNW 6.9 mph - N/A   Clear
6:53 PM 62.1 °F - 28.0 °F 28% 30.17 in 10.0 mi NNE 8.1 mph - N/A   Clear
7:53 PM 52.0 °F - 24.1 °F 34% 30.19 in 10.0 mi NNE 9.2 mph - N/A   Clear
8:53 PM 51.1 °F - 26.1 °F 38% 30.19 in 10.0 mi NE 9.2 mph - N/A   Clear
9:53 PM 48.0 °F - 27.0 °F 44% 30.21 in 10.0 mi East 6.9 mph - N/A   Clear
10:53 PM 46.0 °F 43.1 °F 27.0 °F 47% 30.21 in 10.0 mi ESE 5.8 mph - N/A   Clear
11:53 PM 45.0 °F 40.6 °F 28.0 °F 52% 30.22 in 10.0 mi SE 8.1 mph - N/A   Clear